Location: Jetmore Motorplex
(37.9889°N, 99.8876°W)
Time: 11:37:30
(UTC+00:00)

USA 116 - Pass Details

Date: 17 February 2020
Orbit: 405 x 834 km, 97.9° (Epoch: 18 November)

Event Time Altitude Azimuth Distance (km) Brightness Sun altitude
Rises 01:16:08 0° 10° (N) 2,558 7.0 -11.9°
Reaches altitude 10° 01:18:06 10° 8° (N) 1,726 6.1 -12.3°
Maximum altitude 01:21:47 73° 285° (WNW) 578 3.9 -13.0°
Drops below altitude 10° 01:25:58 10° 199° (SSW) 1,943 6.8 -13.8°
Sets 01:28:17 0° 198° (SSW) 2,914 7.7 -14.3°
